Location: Unspecified
(0.0000°N, 0.0000°E)
Time: 11:36:46
(UTC+00:00)

Hubble Space Telescope - Pass Details

Date: 20 March 2019
Orbit: 537 x 540 km, 28.5° (Epoch: 24 March)

Event Time Altitude Azimuth Distance (km) Brightness Sun altitude
Exits shadow 05:35:21 - 310° (NW) 2,305 3.5 -8.1°
Reaches altitude 10° 05:36:44 10° 314° (NW) 1,777 3.0 -7.7°
Maximum altitude 05:40:44 51° 30° (NNE) 673 1.5 -6.7°
Drops below altitude 10° 05:44:44 10° 107° (ESE) 1,779 4.9 -5.7°
Sets 05:47:03 0° 112° (ESE) 2,671 5.9 -5.2°
